Location: Roswell
(33.3943°N, 104.5230°W)
Time: 14:51:29
(UTC+00:00)

Vanguard 2 Rocket - Pass Details

Date: 20 November 2024
Orbit: 554 x 3296 km, 32.9° (Epoch: 30 November)

Event Time Altitude Azimuth Distance (km) Brightness Sun altitude
Exits shadow 12:39:02 - 248° (WSW) 4,313 9.9 -11.7°
Reaches altitude 10° 12:40:38 10° 248° (WSW) 3,876 9.6 -11.4°
Maximum altitude 12:51:40 79° 163° (SSE) 2,418 9.1 -9.2°
Drops below altitude 10° 13:10:09 10° 81° (E) 6,108 12.2 -5.6°
Sets 13:15:16 0° 81° (E) 7,250 12.7 -4.6°
